Regional Weather Roundup
Issued by NWS

Home | Current Version | Previous Version | Graphics & Text | Print | Product List | Glossary On
Versions: 1 2 3 4 5 6 7 8 9 10 11 12 13 14 15 16 17 18 19 20 21 22 23 24 25 26 27 28 29 30 31 32 33 34 35 36 37 38 39 40 41 42 43 44 45 46 47 48 49 50
000
ASUS43 KMKX 010011
RWRWI

WISCONSIN REGIONAL WEATHER ROUNDUP
NATIONAL WEATHER SERVICE MILWAUKEE/SULLIVAN WI
700 PM CDT MON AUG 31 2015

NOTE: "FAIR" INDICATES FEW OR NO CLOUDS BELOW 12,000 FEET WITH NO
SIGNIFICANT WEATHER AND/OR OBSTRUCTIONS TO VISIBILITY.

WIZ001-002-006>008-014>016-023>028-010100-
NORTHWEST WISCONSIN

CITY           SKY/WX    TMP DP  RH WIND       PRES   REMARKS
SUPERIOR ARPT  CLEAR     78  70  76 SW8       29.84S HX  81
6HR MIN TEMP:  78; 6HR MAX TEMP:  83;

ASHLAND        CLEAR     76  69  79 S8        29.87F
6HR MIN TEMP:  76; 6HR MAX TEMP:  82;

HAYWARD        CLEAR     76  69  79 S12       29.91S
6HR MIN TEMP:  75; 6HR MAX TEMP:  78;

SIREN          CLEAR     80  69  70 S6        29.89S HX  82
6HR MIN TEMP:  79; 6HR MAX TEMP:  82;

CUMBERLAND     CLEAR     75  70  83 S6        29.92S
RICE LAKE      PTCLDY    77  70  80 SE7       29.93F
6HR MIN TEMP:  74; 6HR MAX TEMP:  79;

CHETEK         PTCLDY   N/A N/A N/A SE5       29.93R
LADYSMITH      CLEAR     76  70  81 SE6       29.96F
6HR MIN TEMP:  72; 6HR MAX TEMP:  78;

EAU CLAIRE     CLEAR     80  70  71 S9        29.92S HX  83
6HR MIN TEMP:  74; 6HR MAX TEMP:  82;

MENOMONIE      PTCLDY    78  72  80 SE5       29.92S HX  81
6HR MIN TEMP:  77; 6HR MAX TEMP:  83;

NEW RICHMOND   CLEAR     79  70  73 S8        29.90S HX  82
6HR MIN TEMP:  79; 6HR MAX TEMP:  83;

OSCEOLA        PTCLDY    81  71  72 S7        29.92S HX  84
6HR MIN TEMP:  78; 6HR MAX TEMP:  83;

$$

WIZ003>005-009-010-017-018-010100-
NORTH CENTRAL WISCONSIN

CITY           SKY/WX    TMP DP  RH WIND       PRES   REMARKS
MANITOWISH WTR CLEAR     72  66  82 SW8       29.96S
6HR MIN TEMP:  72; 6HR MAX TEMP:  80;

ARBOR VITAE    CLEAR     72  66  82 SW8       29.98S
6HR MIN TEMP:  72; 6HR MAX TEMP:  81;

WOODRUFF       CLEAR     72  66  82 SW8       29.98S
6HR MIN TEMP:  72; 6HR MAX TEMP:  81;

RHINELANDER    CLEAR     72  65  78 SW7       30.00S
6HR MIN TEMP:  72; 6HR MAX TEMP:  79;

EAGLE RIVER    CLEAR     73  62  70 SW6       29.97S
6HR MIN TEMP:  73; 6HR MAX TEMP:  80;

LAND O LAKES   CLEAR     74  65  71 SW5       29.97S
6HR MIN TEMP:  74; 6HR MAX TEMP:  83;

PHILLIPS       CLEAR     73  67  84 S8        29.96S
6HR MIN TEMP:  71; 6HR MAX TEMP:  76;

TOMAHAWK       CLEAR     71  65  83 CALM      29.99F
6HR MIN TEMP:  71; 6HR MAX TEMP:  78;

MEDFORD        CLEAR     72  69  91 S3        29.98F
6HR MIN TEMP:  71; 6HR MAX TEMP:  75;

MERRILL        CLEAR     74  68  82 CALM      29.99F
6HR MIN TEMP:  72; 6HR MAX TEMP:  78;

$$

WIZ029-030-035-036-043>047-010100-
CENTRAL WISCONSIN

CITY           SKY/WX    TMP DP  RH WIND       PRES   REMARKS
WAUSAU         CLEAR     75  68  78 CALM      29.98S
6HR MIN TEMP:  70; 6HR MAX TEMP:  78;

MOSINEE        NOT AVBL
MARSHFIELD     CLEAR     76  67  73 S8        29.98F
6HR MIN TEMP:  71; 6HR MAX TEMP:  80;

STEVENS POINT  CLEAR     75  67  76 S5        29.99F
6HR MIN TEMP:  71; 6HR MAX TEMP:  78;

WAUPACA        CLEAR     78  71  77 S3        29.98F HX  81
6HR MIN TEMP:  78; 6HR MAX TEMP:  83;

WAUTOMA        CLEAR     78  72  82 CALM      29.99F HX  80
6HR MIN TEMP:  78; 6HR MAX TEMP:  83;

WISC RAPIDS    CLEAR     77  68  73 S5        29.99F
6HR MIN TEMP:  75; 6HR MAX TEMP:  81;

CAMP DOUGLAS   MOCLDY    79  75  89 SE2       29.98S HX  82
$$

WIZ011>013-019>022-031-037>040-048>050-010100-
NORTHEAST WISCONSIN

CITY           SKY/WX    TMP DP  RH WIND       PRES   REMARKS
ANTIGO         CLEAR     71  66  84 SW8       30.01S
SHAWANO        CLEAR     77  69  77 CALM      29.98S
6HR MIN TEMP:  74; 6HR MAX TEMP:  81;

OCONTO         CLEAR     73  71  93 CALM      29.97S
6HR MIN TEMP:  73; 6HR MAX TEMP:  79;

STURGEON BAY   CLEAR     73  66  78 SW6       30.01S
6HR MIN TEMP:  70; 6HR MAX TEMP:  79;

GREEN BAY      CLEAR     74  69  85 S5        29.98F
6HR MIN TEMP:  74; 6HR MAX TEMP:  79;

MANITOWOC      CLEAR     68  64  87 MISG      30.00S
6HR MIN TEMP:  68; 6HR MAX TEMP:  79;

APPLETON       PTCLDY    75  66  73 VRB6      29.98F
CLINTONVILLE   CLEAR     77  68  73 SW6       29.98S
OSHKOSH        CLEAR     74  69  85 S5        29.99F
6HR MIN TEMP:  73; 6HR MAX TEMP:  79;

$$

WIZ032>034-041-042-053>061-010100-
SOUTHWEST WISCONSIN

CITY           SKY/WX    TMP DP  RH WIND       PRES   REMARKS
LA CROSSE      CLEAR     81  70  69 SE9       29.93F HX  84
6HR MIN TEMP:  80; 6HR MAX TEMP:  85;

SPARTA         CLEAR     79  67  67 SE3       29.97S HX  81
6HR MIN TEMP:  79; 6HR MAX TEMP:  83;

VIROQUA          N/A     77  70  78 S5        29.99F
6HR MIN TEMP:  77; 6HR MAX TEMP:  82;

BOSCOBEL       CLEAR     82  71  69 CALM      29.97S HX  86
6HR MIN TEMP:  82; 6HR MAX TEMP:  87;

PRAIRIE DU CHI CLEAR     81  69  66 SE3       29.96S HX  84
6HR MIN TEMP:  81; 6HR MAX TEMP:  84;

PLATTEVILLE    CLEAR     78  73  83 SE5       30.00S HX  81
6HR MIN TEMP:  78; 6HR MAX TEMP:  82;

$$

WIZ056-057-062-063-064-067-068-010100-
SOUTH CENTRAL WISCONSIN

CITY           SKY/WX    TMP DP  RH WIND       PRES   REMARKS
REEDSBURG      CLEAR     77  70  77 S3        29.99S
6HR MIN TEMP:  77; 6HR MAX TEMP:  83;

BARABOO/DELLS  CLEAR     77  66  68 S3        30.00S
6HR MIN TEMP:  77; 6HR MAX TEMP:  83;

LONE ROCK      CLEAR     79  70  74 SE5       29.99S HX  82
6HR MIN TEMP:  79; 6HR MAX TEMP:  84;

MINERAL POINT  NOT AVBL
MADISON        CLEAR     79  68  69 S3        30.00S HX  81
6HR MIN TEMP:  78; 6HR MAX TEMP:  83;

MIDDLETON      CLEAR    N/A N/A N/A SW5       30.01S
WATERTOWN      CLEAR     77  71  82 CALM      30.00S
6HR MIN TEMP:  77; 6HR MAX TEMP:  82;

MONROE         CLEAR     79  68  69 SW5       30.01S HX  81
JANESVILLE     CLEAR     81  70  69 S7        30.00S HX  84
$$

WIZ051-052-058>065-066-070>072-010100-
SOUTHEAST WISCONSIN

CITY           SKY/WX    TMP DP  RH WIND       PRES   REMARKS
MILWAUKEE      MOCLDY    72  65  78 SE3       30.01S
6HR MIN TEMP:  72; 6HR MAX TEMP:  80;

WAUKESHA       NOT AVBL
MILWAUKEE/TIMM CLEAR     79  64  61 SW6       30.01S HX  81
RACINE         CLEAR     73  64  73 S7        30.03S
6HR MIN TEMP:  73; 6HR MAX TEMP:  78;

BURLINGTON     CLEAR     75  69  81 CALM      30.02R
6HR MIN TEMP:  75; 6HR MAX TEMP:  81;

KENOSHA          N/A     75  67  76 SE7       30.02S
6HR MIN TEMP:  75; 6HR MAX TEMP:  81;

FOND DU LAC    CLEAR     75  70  84 S3        30.00S
6HR MIN TEMP:  74; 6HR MAX TEMP:  80;

SHEBOYGAN      CLEAR     71  67  87 S5        30.01S
6HR MIN TEMP:  71; 6HR MAX TEMP:  79;

WEST BEND      CLEAR     73  66  78 CALM      30.01S
JUNEAU         CLEAR     76  69  80 S3        30.02S
6HR MIN TEMP:  75; 6HR MAX TEMP:  80; 6HR PCP:  0.01;

$$

LSZ147-162-010100-
LAKE SUPERIOR

STATION/POSITION TIME  TEMP    WIND        PRES    WAVE
                       AIR SEA DIR/SP/G            HT/PER
                 (UTC) (F)     (DEG/KT/KT) (MB)    (FT/S)
W MID LAKE BUOY  2350   64 57  220/ 12/ 12 1010.5R   0
DEVILS ISLAND    0000   75     210/ 14/ 16 1010.4R
PORT WING        2300   80     190/ 11/ 19 1010.5R
SAXON HARBOR     2300   79     200/  9/ 18 1010.8
$$

LMZ867-665-643>646-010100-
LAKE MICHIGAN

STATION/POSITION TIME  TEMP    WIND        PRES    WAVE
                       AIR SEA DIR/SP/G            HT/PER
                 (UTC) (F)     (DEG/KT/KT) (MB)    (FT/S)
CHAMBERS ISLAND  2300   73     190/  7/ 14 1014.6S
S GREEN BAY BUOY 0000   69 64  200/  8/ 10 1016.3F



USA.gov is the U.S. government's official web portal to all federal, state and local government web resources and services.